Starlink 30426

operational
NORAD ID: 57848 Int'l Des: 2023-141 Owner: SPXS Country: US Constellation: starlink
LEOCIRCULAR

Starlink 30426について

説明を読み込み中...

リアルタイム位置

3D地球を読み込み中...

次回通過

高度履歴

Altitude vs Time

uPlot chart will show altitude changes over time

軌道要素

1 57848U 23141J 25257.59805422 .00001694 00000-0 69325-4 0 9998
2 57848 53.1624 22.0837 0001069 108.0702 252.0415 15.30191542113365
Epoch: Sep 14, 2025 • Age: 20 hours

現在のステータス

高度 481.2 km
速度 7.62 km/s
衛星直下点 -19.72°S, 151.33°W
打ち上げ日 Sep 12, 2023
運用期間 2 years
タイプ internet

技術仕様

分類 Payload
質量 730.00 kg
乾燥質量 700.00 kg
総質量 730.00 kg
長さ 0.30 m
直径 4.10 m
スパン 29.00 m
形状 Box + pan
製造者 SPXS
バスタイプ Starlink V2M
フェーズステータス In Orbit
所有者/国 SPXS/US

大規模コンステレーション

Loading constellations...